| time (UTC) | temp F | wind direction | speed MPH | gust MPH | rain 1hr in | rain 24hr in | rain mn in | humidity % | barometer mb |
| 20260905004556 | 54 | 350 | 3.0 | 8.0 | 0.00 | 0.00 | 0.00 | 77 | 1020.4 |
| 20260905003054 | 54 | 320 | 4.0 | 7.0 | 0.00 | 0.00 | 0.00 | 78 | 1020.4 |
| 20260905001552 | 53 | 16 | 3.0 | 6.0 | 0.00 | 0.00 | 0.00 | 80 | 1020.3 |
| 20260905000100 | 52 | 18 | 3.0 | 8.0 | 0.00 | 0.00 | 0.00 | 81 | 1020.3 |
| 20260904234544 | 51 | 31 | 2.0 | 4.0 | 0.00 | 0.00 | 0.00 | 82 | 1020.2 |
| 20260904233045 | 50 | 46 | 1.0 | 5.0 | 0.00 | 0.00 | 0.00 | 86 | 1020.4 |
| 20260904231537 | 49 | 57 | 0.0 | 3.0 | 0.00 | 0.00 | 0.00 | 87 | 1020.4 |
| 20260904230036 | 48 | 57 | 1.0 | 4.0 | 0.00 | 0.00 | 0.00 | 87 | 1020.3 |
| 20260904224536 | 48 | 57 | 1.0 | 3.0 | 0.00 | 0.00 | 0.00 | 86 | 1020.4 |
| 20260904223035 | 48 | 57 | 2.0 | 4.0 | 0.00 | 0.00 | 0.00 | 86 | 1020.3 |
| 20260904221535 | 48 | 69 | 2.0 | 4.0 | 0.00 | 0.00 | 0.00 | 86 | 1020.3 |
| 20260904220101 | 47 | 69 | 0.0 | 3.0 | 0.00 | 0.00 | 0.00 | 87 | 1020.3 |
| 20260904214533 | 47 | 69 | 1.0 | 4.0 | 0.00 | 0.01 | 0.00 | 87 | 1020.4 |
| 20260904213035 | 47 | 69 | 0.0 | 3.0 | 0.00 | 0.01 | 0.00 | 87 | 1020.3 |
| 20260904211530 | 47 | 5 | 0.0 | 3.0 | 0.00 | 0.01 | 0.00 | 87 | 1020.1 |
| 20260904210036 | 46 | 5 | 0.0 | 4.0 | 0.00 | 0.01 | 0.00 | 88 | 1020.1 |
| 20260904204529 | 46 | 251 | 0.0 | 3.0 | 0.00 | 0.01 | 0.00 | 88 | 1020.0 |
| 20260904203035 | 46 | 251 | 0.0 | 0.0 | 0.00 | 0.01 | 0.00 | 88 | 1020.0 |
| 20260904201527 | 45 | 251 | 0.0 | 2.0 | 0.00 | 0.01 | 0.00 | 88 | 1020.1 |
| 20260904200033 | 45 | 251 | 0.0 | 2.0 | 0.00 | 0.01 | 0.00 | 88 | 1020.0 |
| 20260904194544 | 45 | 251 | 0.0 | 3.0 | 0.00 | 0.01 | 0.00 | 87 | 1020.1 |
| 20260904193023 | 45 | 251 | 0.0 | 2.0 | 0.00 | 0.01 | 0.00 | 87 | 1020.1 |
| 20260904191535 | 45 | 251 | 0.0 | 1.0 | 0.00 | 0.01 | 0.00 | 87 | 1020.2 |
| 20260904190019 | 45 | 251 | 0.0 | 2.0 | 0.00 | 0.01 | 0.00 | 86 | 1020.5 |
| 20260904184519 | 46 | 251 | 0.0 | 2.0 | 0.00 | 0.01 | 0.00 | 85 | 1020.6 |
| 20260904183013 | 47 | 251 | 0.0 | 0.0 | 0.00 | 0.01 | 0.00 | 84 | 1020.7 |
| 20260904181509 | 48 | 251 | 0.0 | 1.0 | 0.00 | 0.01 | 0.00 | 81 | 1020.7 |
| 20260904180006 | 49 | 251 | 0.0 | 0.0 | 0.00 | 0.01 | 0.00 | 80 | 1020.8 |
| 20260904174502 | 50 | 251 | 0.0 | 0.0 | 0.00 | 0.01 | 0.00 | 80 | 1020.8 |
| 20260904173102 | 51 | 251 | 0.0 | 0.0 | 0.00 | 0.01 | 0.00 | 79 | 1020.9 |
| 20260904171604 | 51 | 251 | 0.0 | 3.0 | 0.00 | 0.01 | 0.00 | 79 | 1021.0 |
| 20260904170058 | 51 | 228 | 0.0 | 0.0 | 0.00 | 0.01 | 0.00 | 80 | 1021.2 |
| 20260904164555 | 51 | 228 | 0.0 | 0.0 | 0.00 | 0.01 | 0.00 | 80 | 1021.1 |
| 20260904163104 | 51 | 228 | 0.0 | 0.0 | 0.00 | 0.01 | 0.00 | 81 | 1021.1 |
| 20260904161553 | 51 | 228 | 0.0 | 0.0 | 0.00 | 0.01 | 0.00 | 81 | 1021.2 |
| 20260904160054 | 51 | 228 | 0.0 | 0.0 | 0.00 | 0.01 | 0.00 | 80 | 1021.3 |
| 20260904154549 | 51 | 212 | 0.0 | 0.0 | 0.00 | 0.01 | 0.01 | 78 | 1021.2 |
| 20260904153051 | 52 | 223 | 0.0 | 0.0 | 0.00 | 0.01 | 0.01 | 79 | 1021.3 |
| 20260904151548 | 51 | 224 | 0.0 | 3.0 | 0.00 | 0.01 | 0.01 | 81 | 1021.4 |
| 20260904150052 | 50 | 226 | 1.0 | 4.0 | 0.00 | 0.01 | 0.01 | 83 | 1021.5 |
| 20260904144548 | 49 | 219 | 0.0 | 0.0 | 0.00 | 0.01 | 0.01 | 86 | 1021.5 |
| 20260904143047 | 49 | 206 | 0.0 | 0.0 | 0.00 | 0.01 | 0.01 | 86 | 1021.4 |
| 20260904141545 | 48 | 136 | 0.0 | 1.0 | 0.00 | 0.01 | 0.01 | 87 | 1021.5 |
| 20260904140046 | 47 | 138 | 0.0 | 0.0 | 0.00 | 0.01 | 0.01 | 86 | 1021.5 |
| 20260904134547 | 47 | 136 | 0.0 | 0.0 | 0.00 | 0.01 | 0.01 | 85 | 1021.4 |
| 20260904133049 | 47 | 155 | 0.0 | 0.0 | 0.00 | 0.01 | 0.01 | 84 | 1021.5 |
| 20260904131543 | 48 | 163 | 0.0 | 0.0 | 0.00 | 0.01 | 0.01 | 81 | 1021.5 |
| 20260904130039 | 49 | 165 | 0.0 | 0.0 | 0.00 | 0.01 | 0.01 | 80 | 1021.7 |
| 20260904124540 | 50 | 175 | 0.0 | 0.0 | 0.00 | 0.01 | 0.01 | 77 | 1021.6 |
| 20260904123033 | 52 | 198 | 0.0 | 0.0 | 0.00 | 0.01 | 0.01 | 74 | 1021.6 |
| 20260904121527 | 53 | 193 | 0.0 | 0.0 | 0.00 | 0.01 | 0.01 | 72 | 1021.7 |
| 20260904120027 | 54 | 169 | 2.0 | 5.0 | 0.00 | 0.01 | 0.01 | 70 | 1021.6 |
| 20260904114525 | 56 | 188 | 2.0 | 4.0 | 0.00 | 0.01 | 0.01 | 68 | 1021.6 |
| 20260904113024 | 57 | 238 | 2.0 | 5.0 | 0.00 | 0.01 | 0.01 | 66 | 1021.5 |
| 20260904111521 | 56 | 176 | 5.0 | 8.0 | 0.00 | 0.01 | 0.01 | 66 | 1021.2 |
| 20260904110034 | 57 | 198 | 2.0 | 6.0 | 0.00 | 0.01 | 0.01 | 67 | 1021.1 |
| 20260904104519 | 57 | 200 | 3.0 | 6.0 | 0.00 | 0.01 | 0.01 | 67 | 1020.8 |
| 20260904103018 | 57 | 225 | 2.0 | 7.0 | 0.00 | 0.01 | 0.01 | 67 | 1020.6 |
| 20260904101516 | 58 | 202 | 1.0 | 6.0 | 0.00 | 0.01 | 0.01 | 69 | 1020.4 |
| 20260904100012 | 58 | 221 | 2.0 | 6.0 | 0.00 | 0.01 | 0.01 | 68 | 1020.1 |
| 20260904094511 | 58 | 218 | 2.0 | 4.0 | 0.00 | 0.02 | 0.01 | 71 | 1019.9 |
| 20260904093007 | 59 | 219 | 2.0 | 8.0 | 0.00 | 0.02 | 0.01 | 70 | 1019.6 |
| 20260904091505 | 59 | 210 | 4.0 | 10.0 | 0.00 | 0.02 | 0.01 | 69 | 1019.4 |
| 20260904090002 | 60 | 246 | 3.0 | 5.0 | 0.00 | 0.02 | 0.01 | 67 | 1019.2 |
| 20260904084503 | 61 | 208 | 3.0 | 7.0 | 0.00 | 0.13 | 0.01 | 67 | 1018.9 |
| 20260904083059 | 61 | 226 | 8.0 | 15.0 | 0.00 | 0.13 | 0.01 | 63 | 1018.7 |
| 20260904081557 | 61 | 221 | 4.0 | 8.0 | 0.00 | 0.13 | 0.01 | 67 | 1018.6 |
| 20260904080101 | 62 | 238 | 3.0 | 9.0 | 0.00 | 0.13 | 0.01 | 65 | 1018.3 |
| 20260904074555 | 63 | 248 | 4.0 | 11.0 | 0.00 | 0.22 | 0.01 | 62 | 1018.1 |
| 20260904073050 | 62 | 224 | 7.0 | 11.0 | 0.00 | 0.22 | 0.01 | 60 | 1017.8 |
| 20260904071550 | 65 | 242 | 6.0 | 14.0 | 0.00 | 0.22 | 0.01 | 57 | 1017.6 |
| 20260904070049 | 64 | 240 | 9.0 | 18.0 | 0.00 | 0.22 | 0.01 | 56 | 1017.5 |
| 20260904064547 | 63 | 242 | 10.0 | 16.0 | 0.00 | 0.22 | 0.01 | 58 | 1017.5 |
| 20260904063046 | 64 | 260 | 8.0 | 17.0 | 0.00 | 0.22 | 0.01 | 56 | 1017.2 |
| 20260904061550 | 64 | 253 | 8.0 | 12.0 | 0.00 | 0.22 | 0.01 | 55 | 1017.2 |
| 20260904060045 | 65 | 243 | 5.0 | 11.0 | 0.00 | 0.22 | 0.01 | 54 | 1017.1 |
| 20260904054543 | 64 | 236 | 6.0 | 12.0 | 0.00 | 0.23 | 0.01 | 56 | 1017.1 |
| 20260904053044 | 65 | 281 | 5.0 | 8.0 | 0.00 | 0.23 | 0.01 | 56 | 1017.1 |
| 20260904051548 | 64 | 266 | 6.0 | 11.0 | 0.00 | 0.23 | 0.01 | 53 | 1017.2 |
| 20260904050041 | 65 | 242 | 5.0 | 11.0 | 0.00 | 0.23 | 0.01 | 54 | 1017.3 |
| 20260904044538 | 64 | 234 | 10.0 | 18.0 | 0.00 | 0.23 | 0.01 | 55 | 1017.4 |
| 20260904043036 | 63 | 237 | 9.0 | 19.0 | 0.00 | 0.23 | 0.01 | 52 | 1017.5 |
| 20260904041533 | 63 | 229 | 7.0 | 15.0 | 0.00 | 0.23 | 0.01 | 61 | 1017.4 |
| 20260904040033 | 62 | 225 | 6.0 | 15.0 | 0.00 | 0.23 | 0.01 | 60 | 1017.5 |
| 20260904034546 | 63 | 234 | 5.0 | 23.0 | 0.00 | 0.23 | 0.01 | 62 | 1017.5 |
| 20260904033030 | 61 | 248 | 10.0 | 19.0 | 0.00 | 0.23 | 0.01 | 60 | 1017.3 |
| 20260904031528 | 62 | 228 | 9.0 | 17.0 | 0.00 | 0.23 | 0.01 | 61 | 1017.3 |
| 20260904030025 | 61 | 242 | 6.0 | 17.0 | 0.00 | 0.23 | 0.01 | 67 | 1017.3 |
| 20260904024524 | 61 | 242 | 9.0 | 21.0 | 0.00 | 0.23 | 0.01 | 67 | 1017.3 |
| 20260904023020 | 61 | 235 | 9.0 | 14.0 | 0.00 | 0.23 | 0.01 | 69 | 1017.5 |
| 20260904021518 | 59 | 220 | 6.0 | 15.0 | 0.00 | 0.23 | 0.01 | 71 | 1017.4 |
| 20260904020018 | 59 | 237 | 7.0 | 14.0 | 0.00 | 0.23 | 0.01 | 74 | 1017.3 |
| 20260904014514 | 59 | 241 | 6.0 | 12.0 | 0.00 | 0.23 | 0.01 | 73 | 1017.3 |
| 20260904013013 | 58 | 235 | 6.0 | 12.0 | 0.00 | 0.23 | 0.01 | 76 | 1017.2 |
| 20260904011533 | 59 | 233 | 4.0 | 11.0 | 0.00 | 0.23 | 0.01 | 75 | 1016.9 |
| 20260904010007 | 58 | 281 | 3.0 | 9.0 | 0.00 | 0.23 | 0.01 | 78 | 1016.7 |